Regional Weather Roundup
Issued by NWS

Home | Current Version | Previous Version | Graphics & Text | Print | Product List | Glossary On
Versions: 1 2 3 4 5 6 7 8 9 10 11 12 13 14 15 16 17 18 19 20 21 22 23 24 25 26 27 28 29 30 31 32 33 34 35 36 37 38 39 40 41 42 43 44 45 46 47 48 49 50
451
ASUS43 KIND 190209
RWRIN

WEATHER ROUNDUP FOR INDIANA
NATIONAL WEATHER SERVICE INDIANAPOLIS IN
1000 PM EDT WED OCT 18 2017

NOTE: "FAIR" INDICATES FEW OR NO CLOUDS BELOW 12,000 FEET WITH NO
SIGNIFICANT WEATHER AND/OR OBSTRUCTIONS TO VISIBILITY.

* - STATION DOES NOT REPORT WEATHER SUCH AS PRECIPITATION OR FOG.

+ - STATION NOT QUALITY CONTROLLED BY THE NATIONAL WEATHER SERVICE.
    USE DATA WITH CAUTION...ESPECIALLY DEWPOINT AND RELATIVE
    HUMIDITY OBSERVATIONS.

INZ001>003-010>013-019-020-190300-
NORTHWEST INDIANA

CITY           SKY/WX    TMP DP  RH WIND       PRES   REMARKS
GARY /AIRPORT/ CLEAR     63  41  45 S8G20     30.07S
KNOX *+        CLEAR     57  43  58 S8        30.10R
LA PORTE +     CLEAR     57  43  59 S7        30.09F
MICHIGAN CITY+ CLEAR     59  43  55 S9        30.08S
MONTICELLO +   CLEAR     57  43  58 S6        30.11S
RENSSELAER +   CLEAR     55  37  50 S8        30.11R
VALPARAISO     CLEAR     59  45  59 S7        30.09S

$$

LMZ046-743>745-190300-
SOUTHERN LAKE MICHIGAN

STATION/POSITION TIME  TEMP    WIND        PRES    WAVE
                       AIR SEA DIR/SP/G            HT
                 (UTC) (F)     (DEG/KT/KT) (MB)    (FT)
BURNS HARBOR     0140   61     190/ 12/ 16 1018.6S
MICHIGAN CITY    0140   62     170/ 13/ 17   N/A
5NW MICH CITY    0200   62 58  210/ 16/ 19   N/A     2

$$

INZ004-005-014>016-021>024-190300-
NORTH CENTRAL INDIANA

CITY           SKY/WX    TMP DP  RH WIND       PRES   REMARKS
GOSHEN         CLEAR     57  41  55 S10       30.10S
LOGANSPORT +   CLEAR     50  43  76 S7        30.13S
PERU/GRISSOM   CLEAR     53  44  71 S9        30.12F
SOUTH BEND     CLEAR     57  43  59 S12       30.10S
WARSAW +       CLEAR     57  43  58 CALM      30.12R

$$

INZ006>009-017-018-025>027-190300-
NORTHEAST INDIANA

CITY           SKY/WX    TMP DP  RH WIND       PRES   REMARKS
AUBURN +       CLEAR     54  39  58 CALM      30.13S
FORT WAYNE     CLEAR     54  41  61 S9        30.13F
HUNTINGTON +   CLEAR     55  42  61 S5        30.13S
KENDALLVILLE + CLEAR     56  42  57 S8        30.11F

$$

INZ028-029-035-036-043>045-051>053-190300-
WEST CENTRAL INDIANA

CITY           SKY/WX    TMP DP  RH WIND       PRES   REMARKS
CRAWFORDSVL +  CLEAR     54  45  71 S9        30.14S
GREENCASTLE +  CLEAR     54  43  66 S6        30.15F
LAFAYETTE      CLEAR     57  44  62 S8        30.12S
TERRE HAUTE    CLEAR     56  44  64 S7        30.15F

$$

INZ030>032-037>040-046>048-054>057-064-065-190300-
CENTRAL INDIANA

CITY           SKY/WX    TMP DP  RH WIND       PRES   REMARKS
CP ATTERBURY + CLEAR     50  43  76 CALM      30.18S
COLUMBUS       CLEAR     54  43  66 S6        30.17F
FISHERS *+     CLEAR     55  48  76 S6        30.16
FRANKFORT +    CLEAR     56  46  67 S5        30.14F
GREENWOOD *+   CLEAR     60  48  64 S6        30.18S
INDIANAPOLIS   CLEAR     57  45  64 S9        30.17S
-EAGLE CREEK   CLEAR     58  44  60 S5        30.15F
KOKOMO +       CLEAR     56  44  64 S8        30.14F
MARION +       CLEAR     54  43  66 S8        30.15F HAZE
MT COMFORT *+  CLEAR     54  48  82 S6        30.17S
SHELBYVILLE    CLEAR     56  43  61 S8        30.17S
ZIONSVILLE +   CLEAR     57  44  62 S8        30.15F

$$

INZ033-034-041-042-049-050-058-059-190300-
EAST CENTRAL INDIANA

CITY           SKY/WX    TMP DP  RH WIND       PRES   REMARKS
MUNCIE         CLEAR     58  44  60 S6        30.16S
RICHMOND +     CLEAR     46  41  81 S7        30.19F

$$

INZ060-061-067>069-081>083-085>088-190300-
SOUTHWEST INDIANA

CITY           SKY/WX    TMP DP  RH WIND       PRES   REMARKS
EVANSVILLE     CLEAR     57  47  69 SW6       30.19S
HUNTINGBURG +  CLEAR     58  47  66 S6        30.19S
WASHINGTON +   CLEAR     54  43  67 S7        30.17S

$$

INZ062-063-066-070>080-084-089>092-190300-
SOUTH CENTRAL AND SOUTHEAST INDIANA

CITY           SKY/WX    TMP DP  RH WIND       PRES   REMARKS
BEDFORD +      CLEAR     54  45  71 S3        30.19R
BLOOMINGTON    CLEAR     57  44  62 S6        30.17F
MADISON *+     CLEAR     50  46  87 CALM      30.23S
NORTH VERNON + CLEAR     52  45  76 S5        30.20S
SEYMOUR +      CLEAR     55  45  67 S3        30.19S

$$





USA.gov is the U.S. government's official web portal to all federal, state and local government web resources and services.